#timestamp,LO_Frequency,Hit,StdDev 
1593439215.6,286047001.9,N
1593439235.5,286047004.3,N
1593439255.3,286047002.5,N
1593439275.2,286047001.0,N
1593439295.9,286047001.9,N
1593439315.7,286047003.7,N
1593439335.6,286047003.9,N
1593439355.4,286047003.5,N
1593439375.2,286047005.1,N
1593439395.1,286047006.3,N
1593439396.0,286047006.3,N
1593439415.8,286047005.1,N
1593439435.7,286047005.9,Y
1593439455.5,286047002.8,P
1593439475.3,286047002.3,P
1593439495.2,286047002.0,P
1593439515.0,286047005.5,Y
1593439515.9,286047005.5,P
1593439535.8,286046998.4,N
1593439555.6,286046999.1,N
1593439575.4,286046998.9,N
1593439595.3,286047000.5,N
1593439615.1,286046999.3,N
1593439635.9,286046998.6,N
1593439655.7,286046999.3,N
1593439675.5,286047000.2,N
1593439695.4,286047003.8,N
1593439715.2,286046998.3,N
1593439735.0,286047002.3,N
1593439736.0,286047002.3,N
1593439755.8,286046999.8,N
1593439775.6,286047003.6,N
1593439795.5,286046999.0,N
1593439815.3,286046997.3,N
1593439835.2,286046997.7,N
1593439855.9,286046997.8,N
1593439875.7,286046995.4,N
1593439895.6,286046998.0,N
1593439915.4,286046995.2,N
1593439935.2,286046995.5,N
1593439955.1,286046995.5,N
1593439956.0,286046995.5,N
1593439975.8,286046999.6,N
1593439995.7,286047000.2,N
1593440015.5,286046998.5,N
1593440035.3,286047002.4,N
1593440055.2,286047001.9,N
1593440075.9,286047000.4,N
1593440095.7,286047002.7,N
1593440115.6,286047003.8,N
1593440135.4,286047002.6,N
1593440155.3,286047001.3,N
1593440175.1,286047003.5,N
1593440176.0,286047003.5,N
1593440195.8,286047004.4,N
1593440215.7,286047002.7,N
1593440235.5,286046999.5,N
1593440255.3,286046995.4,N
1593440275.2,286046995.7,N
1593440295.0,286046994.0,N
1593440295.9,286046994.0,N
1593440315.8,286046995.3,N
1593440335.6,286046992.4,N
1593440355.4,286046995.4,N
1593440375.3,286046993.4,N
1593440395.1,286046996.3,N
1593440415.8,286046993.4,N
1593440435.7,286046996.8,N
1593440455.5,286046995.6,N
1593440475.4,286046996.3,N
1593440495.2,286046996.3,N
1593440515.0,286046995.1,N
1593440515.9,286046995.1,N
1593440535.8,286046993.8,N
1593440555.6,286046995.0,N
1593440575.4,286046996.7,N
1593440595.3,286046992.8,N
1593440615.1,286046989.1,N
1593440635.9,286046988.5,N
1593440655.7,286046988.8,N
1593440675.5,286046990.5,N
1593440695.4,286046990.8,N
1593440715.2,286046989.5,N
1593440735.0,286046991.6,N
1593440736.0,286046991.6,N
1593440755.8,286046991.0,N
1593440775.6,286046989.6,Y
1593440795.5,286046993.9,P
1593440815.3,286046993.7,P
1593440835.1,286046993.4,P
1593440855.9,286046992.0,Y
1593440875.7,286046999.8,P
1593440895.6,286047004.1,N
1593440915.4,286047001.3,N
1593440935.2,286047002.0,N
1593440955.1,286047002.9,N
1593440956.0,286047002.9,N
1593440975.8,286047005.4,N
1593440995.6,286047004.8,N
1593441015.5,286047005.2,N
1593441035.3,286047006.0,N
1593441055.2,286047001.6,N
1593441075.9,286047003.9,N
1593441095.7,286047002.3,N
1593441115.6,286047001.6,N
1593441135.4,286047000.6,N
1593441155.2,286047001.6,N
1593441175.1,286047005.9,N
1593441176.0,286047005.9,N
1593441195.8,286047004.8,N
1593441215.7,286047004.2,N
1593441235.5,286046998.7,N
1593441255.3,286046995.9,N
1593441275.2,286046996.6,N
1593441295.0,286046999.9,N
1593441295.9,286046999.9,N
1593441315.7,286046994.7,N
1593441335.6,286046994.3,N
1593441355.4,286046991.9,N
1593441375.3,286046992.7,N
1593441395.1,286046994.8,N
1593441396.0,286046994.8,N
1593441415.8,286046990.9,N
1593441435.7,286046992.0,N
1593441455.5,286046993.6,N
1593441475.3,286046994.1,N
1593441495.2,286046994.0,N
1593441515.0,286046991.8,N
1593441515.9,286046991.8,N
1593441535.8,286046992.9,N
1593441555.6,286046987.6,N
1593441575.4,286046991.2,N
1593441595.3,286046990.6,N
1593441615.1,286046992.7,N
1593441635.8,286046991.7,N
1593441655.7,286046996.0,N
1593441675.5,286046996.4,N
1593441695.4,286046994.3,N
1593441715.2,286046993.1,N
1593441735.0,286046992.8,N
1593441735.9,286046992.8,N
1593441755.8,286046986.7,Y
1593441775.6,286046994.4,P
1593441795.5,286046999.1,P
1593441815.3,286047000.5,N
1593441835.1,286046999.6,N
1593441855.9,286046995.7,N
1593441875.7,286047000.8,N
1593441895.5,286046999.0,N
1593441915.4,286046996.8,N
1593441935.2,286047002.1,N
1593441955.0,286047005.9,N
1593441956.0,286047005.9,N
1593441975.8,286047003.6,N
1593441995.6,286046999.7,N
1593442015.5,286046998.3,N
1593442035.3,286046998.3,N
1593442055.1,286046998.4,N
1593442075.9,286047005.7,N
1593442095.7,286047006.6,N
1593442115.6,286047007.4,N
1593442135.4,286047003.7,N
1593442155.2,286047002.5,N
1593442175.1,286047002.4,N
1593442176.0,286047002.4,N
1593442195.8,286047000.3,N
1593442215.6,286046999.5,N
1593442235.5,286047002.2,N
1593442255.3,286047003.9,N
1593442275.1,286046999.7,N
1593442295.9,286046999.2,N
1593442315.7,286046995.5,N
1593442335.6,286046997.5,N
1593442355.4,286046997.0,N
1593442375.2,286046998.7,N
1593442395.1,286046997.5,N
1593442396.0,286046997.5,N
1593442415.8,286046995.0,N
1593442435.6,286046995.5,N
1593442455.5,286046997.2,N
1593442475.3,286046995.4,N
1593442495.2,286046998.6,N
1593442515.9,286047001.0,N
1593442535.7,286047003.1,N
1593442555.6,286047007.6,N
1593442575.4,286047004.3,N
1593442595.2,286047003.2,N
1593442615.1,286047006.0,N
1593442616.0,286047006.0,N
1593442635.8,286047001.3,N
1593442655.7,286047003.5,N
1593442675.5,286047006.0,N
1593442695.3,286047002.5,N
1593442715.2,286047000.4,N
1593442735.0,286047000.6,N
1593442735.9,286047000.6,N
1593442755.8,286047000.1,N
1593442775.6,286047002.1,N
1593442795.4,286047004.1,N
